TimeEST,TemperatureF,Dew PointF,Humidity,Sea Level PressureIn,VisibilityMPH,Wind Direction,Wind SpeedMPH,Gust SpeedMPH,PrecipitationIn,Events,Conditions,WindDirDegrees,DateUTC
12:05 AM,26.6,26.6,100,30.09,7.0,West,10.4,-,0.00,,Overcast,280,2012-12-30 05:05:00
12:25 AM,26.6,24.8,93,30.08,8.0,West,12.7,-,0.00,,Overcast,270,2012-12-30 05:25:00
12:45 AM,26.6,24.8,93,30.09,7.0,West,10.4,-,0.00,,Overcast,270,2012-12-30 05:45:00
1:05 AM,26.6,24.8,93,30.10,8.0,West,11.5,-,0.00,,Overcast,270,2012-12-30 06:05:00
1:25 AM,26.6,24.8,93,30.11,8.0,West,10.4,16.1,0.00,,Overcast,270,2012-12-30 06:25:00
1:45 AM,26.6,24.8,93,30.12,7.0,West,12.7,-,0.00,,Overcast,270,2012-12-30 06:45:00
2:05 AM,24.8,23.0,93,30.13,7.0,West,9.2,19.6,0.00,,Overcast,270,2012-12-30 07:05:00
2:25 AM,24.8,23.0,93,30.15,7.0,West,11.5,18.4,0.00,,Overcast,270,2012-12-30 07:25:00
2:45 AM,24.8,23.0,93,30.16,7.0,West,9.2,-,0.00,,Overcast,270,2012-12-30 07:45:00
3:05 AM,24.8,23.0,93,30.16,7.0,West,10.4,-,0.00,,Overcast,270,2012-12-30 08:05:00
3:25 AM,24.8,23.0,93,30.18,8.0,West,11.5,-,0.00,,Overcast,260,2012-12-30 08:25:00
3:45 AM,23.0,23.0,100,30.18,8.0,WSW,11.5,-,0.00,,Overcast,250,2012-12-30 08:45:00
4:05 AM,23.0,23.0,100,30.19,8.0,West,12.7,-,0.00,,Overcast,260,2012-12-30 09:05:00
4:25 AM,23.0,23.0,100,30.20,7.0,West,10.4,-,0.00,,Overcast,270,2012-12-30 09:25:00
4:45 AM,23.0,23.0,100,30.20,7.0,West,9.2,-,0.00,,Overcast,260,2012-12-30 09:45:00
5:05 AM,23.0,23.0,100,30.21,6.0,WSW,13.8,-,0.00,,Overcast,250,2012-12-30 10:05:00
5:25 AM,23.0,23.0,100,30.22,6.0,West,11.5,-,0.00,,Overcast,260,2012-12-30 10:25:00
5:45 AM,23.0,21.2,93,30.23,6.0,West,12.7,-,0.00,,Overcast,260,2012-12-30 10:45:00
6:05 AM,23.0,21.2,93,30.25,6.0,WSW,13.8,-,0.00,,Overcast,250,2012-12-30 11:05:00
6:25 AM,23.0,21.2,93,30.26,6.0,WSW,15.0,-,0.00,,Overcast,250,2012-12-30 11:25:00
6:45 AM,23.0,21.2,93,30.26,5.0,West,16.1,20.7,0.00,,Overcast,260,2012-12-30 11:45:00
7:05 AM,21.2,21.2,100,30.27,6.0,WSW,13.8,-,0.00,,Overcast,250,2012-12-30 12:05:00
7:25 AM,21.2,21.2,100,30.28,5.0,WSW,17.3,21.9,0.00,,Overcast,250,2012-12-30 12:25:00
7:45 AM,21.2,21.2,100,30.29,3.0,West,12.7,-,0.00,,Overcast,260,2012-12-30 12:45:00
8:05 AM,21.2,21.2,100,30.29,3.0,WSW,11.5,16.1,0.00,,Overcast,240,2012-12-30 13:05:00
8:25 AM,21.2,21.2,100,30.31,5.0,WSW,16.1,-,0.00,,Overcast,250,2012-12-30 13:25:00
8:45 AM,19.4,19.4,100,30.31,5.0,West,13.8,-,0.00,,Overcast,260,2012-12-30 13:45:00
9:05 AM,19.4,19.4,100,30.32,7.0,West,11.5,-,0.00,,Overcast,260,2012-12-30 14:05:00
9:25 AM,21.2,19.4,93,30.32,5.0,WSW,6.9,-,0.00,,Overcast,240,2012-12-30 14:25:00
9:45 AM,21.2,19.4,93,30.33,7.0,WSW,8.1,-,0.00,,Overcast,240,2012-12-30 14:45:00
10:05 AM,21.2,17.6,86,30.34,8.0,WSW,11.5,-,0.00,,Overcast,240,2012-12-30 15:05:00
10:25 AM,21.2,17.6,86,30.34,9.0,SW,10.4,-,0.00,,Overcast,230,2012-12-30 15:25:00
10:45 AM,21.2,17.6,86,30.34,8.0,SW,12.7,-,0.00,,Overcast,230,2012-12-30 15:45:00
11:05 AM,21.2,17.6,86,30.35,9.0,SW,11.5,-,0.00,,Overcast,230,2012-12-30 16:05:00
11:25 AM,21.2,17.6,86,30.35,9.0,WSW,12.7,-,0.00,,Overcast,240,2012-12-30 16:25:00
11:45 AM,21.2,17.6,86,30.34,10.0,SW,12.7,-,0.00,,Overcast,230,2012-12-30 16:45:00
12:05 PM,21.2,17.6,86,30.34,10.0,WSW,10.4,-,0.00,,Overcast,240,2012-12-30 17:05:00
12:25 PM,21.2,17.6,86,30.33,10.0,SW,11.5,-,0.00,,Mostly Cloudy,220,2012-12-30 17:25:00
12:45 PM,23.0,17.6,80,30.33,10.0,SW,10.4,-,0.00,,Scattered Clouds,220,2012-12-30 17:45:00
1:05 PM,21.2,17.6,86,30.32,10.0,SW,11.5,-,0.00,,Clear,220,2012-12-30 18:05:00
1:25 PM,21.2,17.6,86,30.31,10.0,SSW,13.8,-,0.00,,Clear,210,2012-12-30 18:25:00
1:45 PM,23.0,17.6,80,30.31,10.0,SSW,12.7,-,0.00,,Clear,210,2012-12-30 18:45:00
2:05 PM,23.0,17.6,80,30.31,10.0,SW,11.5,-,0.00,,Clear,220,2012-12-30 19:05:00
2:25 PM,23.0,17.6,80,30.32,10.0,SW,11.5,-,0.00,,Clear,230,2012-12-30 19:25:00
2:45 PM,23.0,17.6,80,30.32,10.0,SW,12.7,-,0.00,,Clear,220,2012-12-30 19:45:00
3:05 PM,23.0,17.6,80,30.32,10.0,SSW,12.7,-,0.00,,Clear,210,2012-12-30 20:05:00
3:25 PM,23.0,17.6,80,30.32,10.0,SSW,12.7,-,0.00,,Clear,210,2012-12-30 20:25:00
3:45 PM,23.0,17.6,80,30.31,10.0,SSW,10.4,-,0.00,,Clear,210,2012-12-30 20:45:00
4:05 PM,21.2,17.6,86,30.30,10.0,SSW,8.1,-,0.00,,Clear,200,2012-12-30 21:05:00
4:25 PM,21.2,15.8,80,30.29,10.0,South,4.6,-,0.00,,Clear,190,2012-12-30 21:25:00
4:45 PM,21.2,15.8,80,30.29,10.0,South,8.1,-,0.00,,Clear,190,2012-12-30 21:45:00
5:05 PM,21.2,14.0,74,30.29,10.0,South,5.8,-,0.00,,Clear,180,2012-12-30 22:05:00
5:30 PM,19.4,14.0,80,30.29,10.0,South,8.1,-,0.00,,Clear,170,2012-12-30 22:30:00
5:50 PM,19.4,14.0,80,30.30,10.0,South,6.9,-,0.00,,Clear,180,2012-12-30 22:50:00
6:25 PM,19.4,14.0,80,30.30,10.0,South,8.1,-,0.00,,Clear,170,2012-12-30 23:25:00
6:45 PM,19.4,14.0,80,30.30,10.0,South,8.1,-,0.00,,Clear,170,2012-12-30 23:45:00
7:05 PM,19.4,15.8,86,30.30,10.0,South,9.2,-,0.00,,Clear,180,2012-12-31 00:05:00
7:25 PM,19.4,15.8,86,30.31,10.0,South,10.4,-,0.00,,Clear,190,2012-12-31 00:25:00
7:45 PM,21.2,15.8,80,30.32,10.0,South,9.2,-,0.00,,Clear,190,2012-12-31 00:45:00
8:05 PM,21.2,15.8,80,30.32,10.0,South,8.1,-,0.00,,Clear,190,2012-12-31 01:05:00
8:25 PM,21.2,15.8,80,30.31,10.0,South,9.2,-,0.00,,Clear,180,2012-12-31 01:25:00
8:45 PM,23.0,17.6,80,30.29,10.0,South,10.4,-,0.00,,Clear,190,2012-12-31 01:45:00
9:05 PM,23.0,17.6,80,30.28,10.0,South,10.4,-,0.00,,Clear,190,2012-12-31 02:05:00
9:25 PM,23.0,17.6,80,30.27,10.0,South,10.4,-,0.00,,Clear,180,2012-12-31 02:25:00
9:45 PM,23.0,19.4,86,30.27,10.0,South,11.5,-,0.00,,Clear,190,2012-12-31 02:45:00
10:05 PM,23.0,19.4,86,30.27,10.0,South,10.4,-,0.00,,Clear,180,2012-12-31 03:05:00
10:45 PM,23.0,19.4,86,30.25,10.0,South,11.5,-,0.00,,Clear,170,2012-12-31 03:45:00
11:05 PM,21.2,17.6,86,30.26,10.0,SSE,8.1,-,0.00,,Clear,160,2012-12-31 04:05:00
11:25 PM,19.4,17.6,93,30.26,10.0,South,8.1,-,0.00,,Clear,180,2012-12-31 04:25:00
11:45 PM,19.4,17.6,93,30.26,10.0,South,9.2,-,0.00,,Clear,170,2012-12-31 04:45:00